Location: Unspecified
(48.5670°N, 0.0000°E)
Time: 05:36:17
(UTC+00:00)

Transit 2A Rocket - Visible Passes

Search period start: 23 July 2019 00:00
Search period end: 02 August 2019 00:00
Orbit: 588 x 915 km, 66.7° (Epoch: 22 July)

Date Brightness Start Highest point End Pass type
(mag) Time Alt. Az. Time Alt. Az. Time Alt. Az.
23 Jul 6.0 02:15:27 18° S 02:19:34 44° ESE 02:24:54 10° NE visible
24 Jul 6.6 01:34:13 19° SSE 01:37:13 29° ESE 01:42:01 10° NE visible
24 Jul 5.5 03:14:08 12° SW 03:19:35 62° NW 03:25:06 10° NNE visible
25 Jul 7.1 00:52:56 15° SE 00:55:00 18° ESE 00:58:44 10° ENE visible
25 Jul 5.2 02:32:51 21° SSW 02:37:00 89° SE 02:42:36 10° NE visible
26 Jul 7.5 00:11:45 10° ESE 00:12:52 11° ESE 00:13:58 10° E visible
26 Jul 5.5 01:51:31 29° S 01:54:31 59° ESE 02:00:01 10° NE visible
26 Jul 6.3 03:32:08 10° WSW 03:37:26 34° NW 03:42:25 10° NNE visible
27 Jul 6.1 01:10:09 30° SSE 01:12:07 38° ESE 01:17:17 10° NE visible
27 Jul 5.8 02:50:04 15° WSW 02:54:41 48° NW 03:00:01 10° NNE visible
28 Jul 6.6 00:28:45 23° SE 00:29:49 24° ESE 00:34:17 10° ENE visible
28 Jul 5.3 02:08:39 26° SW 02:12:03 71° NW 02:17:35 10° NNE visible
28 Jul 7.0 03:51:17 10° W 03:55:34 21° NNW 03:59:36 10° NNE visible
28 Jul 7.1 23:47:19 15° ESE 23:47:36 15° ESE 23:50:45 10° ENE visible
29 Jul 5.2 01:27:13 39° SSW 01:29:30 78° ESE 01:35:03 10° NE visible
29 Jul 6.6 03:07:44 10° W 03:12:39 28° NW 03:17:17 10° NNE visible
30 Jul 5.6 00:45:44 43° SSE 00:47:02 51° ESE 00:52:25 10° NE visible
30 Jul 6.2 02:25:38 16° WSW 02:29:50 38° NW 02:34:55 10° NNE visible
31 Jul 6.1 00:04:13 32° ESE 00:04:40 32° ESE 00:09:37 10° NE visible
31 Jul 5.6 01:44:06 27° WSW 01:47:08 55° NW 01:52:30 10° NNE visible
31 Jul 7.2 03:27:09 10° WNW 03:30:52 18° NNW 03:34:25 10° NNE visible
31 Jul 6.7 23:22:40 21° ESE 23:22:40 21° ESE 23:26:29 10° ENE visible
01 Aug 5.2 01:02:33 43° SW 01:04:31 81° NW 01:10:02 10° NE visible
01 Aug 7.0 02:43:26 10° W 02:47:54 23° NW 02:52:07 10° NNE visible
01 Aug 7.2 22:41:04 12° E 22:41:04 12° E 22:42:31 10° E visible
